Time,TemperatureF,DewpointF,PressureIn,WindDirection,WindDirectionDegrees,WindSpeedMPH,WindSpeedGustMPH,Humidity,HourlyPrecipIn,Conditions,Clouds,dailyrainin,SoftwareType,DateUTC
2013-01-20 00:00:00,39.6,31.4,30.15,NW,313,0.0,0.0,72,0.00,,BKN250,0.00,VWS V14.01,2013-01-20 05:00:00,
2013-01-20 00:02:00,39.6,31.7,30.12,NW,313,0.0,0.0,73,0.00,,BKN250,0.00,VWS V14.01,2013-01-20 05:02:00,
2013-01-20 00:03:00,39.6,31.7,30.12,NW,313,0.0,0.0,73,0.00,,BKN250,0.00,VWS V14.01,2013-01-20 05:03:00,
2013-01-20 00:05:00,39.6,31.7,30.12,NW,313,0.0,0.0,73,0.00,,,0.00,VWS V14.01,2013-01-20 05:05:00,
2013-01-20 00:08:00,39.6,31.7,30.12,NW,313,0.0,0.0,73,0.00,,BKN250,0.00,VWS V14.01,2013-01-20 05:08:00,
2013-01-20 00:10:00,39.6,31.7,30.12,NW,313,0.0,0.0,73,0.00,,,0.00,VWS V14.01,2013-01-20 05:10:00,
2013-01-20 00:13:00,39.6,31.7,30.12,NW,313,0.0,0.0,73,0.00,,BKN250,0.00,VWS V14.01,2013-01-20 05:13:00,
2013-01-20 00:15:00,39.6,31.7,30.12,NW,313,0.0,0.0,73,0.00,,,0.00,VWS V14.01,2013-01-20 05:15:00,
2013-01-20 00:18:00,39.6,31.7,30.12,NW,313,0.0,0.0,73,0.00,,BKN250,0.00,VWS V14.01,2013-01-20 05:18:00,
2013-01-20 00:20:00,39.6,31.7,30.12,NW,313,0.0,0.0,73,0.00,,,0.00,VWS V14.01,2013-01-20 05:20:00,
2013-01-20 00:23:00,39.5,31.5,30.12,NW,313,0.0,0.0,73,0.00,,BKN250,0.00,VWS V14.01,2013-01-20 05:23:00,
2013-01-20 00:25:00,39.5,31.5,30.12,NW,313,0.0,0.0,73,0.00,,,0.00,VWS V14.01,2013-01-20 05:25:00,
2013-01-20 00:28:00,39.5,31.5,30.12,NW,313,0.0,0.0,73,0.00,,BKN250,0.00,VWS V14.01,2013-01-20 05:28:00,
2013-01-20 00:30:00,39.5,31.5,30.12,NW,313,0.0,0.0,73,0.00,,,0.00,VWS V14.01,2013-01-20 05:30:00,
2013-01-20 00:33:00,39.5,31.5,30.12,NW,313,0.0,0.0,73,0.00,,BKN250,0.00,VWS V14.01,2013-01-20 05:33:00,
2013-01-20 00:35:00,39.3,31.7,30.12,NW,313,0.0,0.0,74,0.00,,,0.00,VWS V14.01,2013-01-20 05:35:00,
2013-01-20 00:38:00,39.3,31.7,30.12,South,172,0.0,0.0,74,0.00,,BKN250,0.00,VWS V14.01,2013-01-20 05:38:00,
2013-01-20 00:40:00,39.1,31.5,30.12,South,172,0.0,0.0,74,0.00,,,0.00,VWS V14.01,2013-01-20 05:40:00,
2013-01-20 00:43:00,39.1,31.5,30.12,South,172,0.0,0.0,74,0.00,,BKN250,0.00,VWS V14.01,2013-01-20 05:43:00,
2013-01-20 00:45:00,39.1,31.5,30.12,South,172,0.0,0.0,74,0.00,,,0.00,VWS V14.01,2013-01-20 05:45:00,
2013-01-20 00:48:00,39.1,31.5,30.12,South,172,0.0,0.0,74,0.00,,BKN250,0.00,VWS V14.01,2013-01-20 05:48:00,
2013-01-20 00:50:00,39.1,31.5,30.12,South,172,0.0,0.0,74,0.00,,,0.00,VWS V14.01,2013-01-20 05:50:00,
2013-01-20 00:53:00,39.1,31.5,30.12,South,172,0.0,0.0,74,0.00,,BKN250,0.00,VWS V14.01,2013-01-20 05:53:00,
2013-01-20 00:55:00,39.1,31.5,30.12,South,172,0.0,0.0,74,0.00,,,0.00,VWS V14.01,2013-01-20 05:55:00,
2013-01-20 00:58:00,38.9,31.7,30.12,South,172,0.0,0.0,75,0.00,,BKN250,0.00,VWS V14.01,2013-01-20 05:58:00,
2013-01-20 01:00:00,38.9,31.7,30.12,South,172,0.0,0.0,75,0.00,,,0.00,VWS V14.01,2013-01-20 06:00:00,
2013-01-20 01:03:00,38.7,31.5,30.12,South,172,0.0,0.0,75,0.00,,BKN250,0.00,VWS V14.01,2013-01-20 06:03:00,
2013-01-20 01:05:00,38.7,31.5,30.12,South,172,0.0,0.0,75,0.00,,,0.00,VWS V14.01,2013-01-20 06:05:00,
2013-01-20 01:08:00,38.7,31.5,30.12,South,172,0.0,0.0,75,0.00,,BKN250,0.00,VWS V14.01,2013-01-20 06:08:00,
2013-01-20 01:10:00,38.7,31.5,30.12,South,172,0.0,0.0,75,0.00,,,0.00,VWS V14.01,2013-01-20 06:10:00,
2013-01-20 01:13:00,38.7,31.5,30.12,South,172,0.0,0.0,75,0.00,,BKN250,0.00,VWS V14.01,2013-01-20 06:13:00,
2013-01-20 01:15:00,38.7,31.5,30.12,South,172,0.0,0.0,75,0.00,,,0.00,VWS V14.01,2013-01-20 06:15:00,
2013-01-20 01:18:00,38.9,32.0,30.12,South,172,0.0,0.0,76,0.00,,BKN250,0.00,VWS V14.01,2013-01-20 06:18:00,
2013-01-20 01:20:00,38.9,32.0,30.12,South,172,0.0,0.0,76,0.00,,,0.00,VWS V14.01,2013-01-20 06:20:00,
2013-01-20 01:23:00,38.9,32.0,30.12,South,172,0.0,0.0,76,0.00,,BKN250,0.00,VWS V14.01,2013-01-20 06:23:00,
2013-01-20 01:25:00,38.9,32.0,30.12,South,172,0.0,0.0,76,0.00,,,0.00,VWS V14.01,2013-01-20 06:25:00,
2013-01-20 01:29:00,39.1,32.5,30.12,WNW,285,0.0,0.0,77,0.00,,BKN250,0.00,VWS V14.01,2013-01-20 06:29:00,
2013-01-20 01:30:00,39.1,32.2,30.12,WNW,285,0.0,0.0,76,0.00,,,0.00,VWS V14.01,2013-01-20 06:30:00,
2013-01-20 01:34:00,39.3,32.7,30.12,WNW,285,0.0,0.0,77,0.00,,BKN250,0.00,VWS V14.01,2013-01-20 06:34:00,
2013-01-20 01:35:00,39.3,32.7,30.12,WNW,285,0.0,0.0,77,0.00,,,0.00,VWS V14.01,2013-01-20 06:35:00,
2013-01-20 01:39:00,39.3,32.7,30.12,WNW,282,0.0,0.0,77,0.00,,BKN250,0.00,VWS V14.01,2013-01-20 06:39:00,
2013-01-20 01:40:00,39.3,32.7,30.12,WNW,282,0.0,0.0,77,0.00,,,0.00,VWS V14.01,2013-01-20 06:40:00,
2013-01-20 01:44:00,39.3,32.7,30.12,SSW,205,0.0,0.0,77,0.00,,BKN250,0.00,VWS V14.01,2013-01-20 06:44:00,
2013-01-20 01:45:00,39.3,32.7,30.12,SSW,205,0.0,0.0,77,0.00,,,0.00,VWS V14.01,2013-01-20 06:45:00,
2013-01-20 01:49:00,39.3,32.7,30.12,SSW,205,0.0,0.0,77,0.00,,BKN250,0.00,VWS V14.01,2013-01-20 06:49:00,
2013-01-20 01:50:00,39.3,32.7,30.12,SSW,205,0.0,0.0,77,0.00,,,0.00,VWS V14.01,2013-01-20 06:50:00,
2013-01-20 01:54:00,39.3,32.7,30.12,SSW,205,0.0,0.0,77,0.00,,BKN250,0.00,VWS V14.01,2013-01-20 06:54:00,
2013-01-20 01:55:00,39.3,32.7,30.12,SSW,205,0.0,0.0,77,0.00,,,0.00,VWS V14.01,2013-01-20 06:55:00,
2013-01-20 01:59:00,39.3,32.7,30.12,WSW,243,0.0,0.0,77,0.00,,BKN250,0.00,VWS V14.01,2013-01-20 06:59:00,
2013-01-20 02:00:00,39.3,32.7,30.12,WSW,243,0.0,0.0,77,0.00,,,0.00,VWS V14.01,2013-01-20 07:00:00,
2013-01-20 02:04:00,39.3,32.7,30.12,WSW,243,0.0,0.0,77,0.00,,BKN250,0.00,VWS V14.01,2013-01-20 07:04:00,
2013-01-20 02:05:00,39.3,32.7,30.12,WSW,243,0.0,0.0,77,0.00,,,0.00,VWS V14.01,2013-01-20 07:05:00,
2013-01-20 02:09:00,39.3,32.7,30.12,WSW,243,0.0,0.0,77,0.00,,BKN250,0.00,VWS V14.01,2013-01-20 07:09:00,
2013-01-20 02:10:00,39.3,32.7,30.12,WSW,243,0.0,0.0,77,0.00,,,0.00,VWS V14.01,2013-01-20 07:10:00,
2013-01-20 02:14:00,39.3,33.0,30.12,WSW,243,0.0,0.0,78,0.00,,BKN250,0.00,VWS V14.01,2013-01-20 07:14:00,
2013-01-20 02:15:00,39.3,32.7,30.12,WSW,243,0.0,0.0,77,0.00,,,0.00,VWS V14.01,2013-01-20 07:15:00,
2013-01-20 02:19:00,39.3,32.7,30.12,WNW,283,0.0,0.0,77,0.00,,BKN250,0.00,VWS V14.01,2013-01-20 07:19:00,
2013-01-20 02:20:00,39.3,33.0,30.12,WNW,283,0.0,0.0,78,0.00,,,0.00,VWS V14.01,2013-01-20 07:20:00,
2013-01-20 02:24:00,39.5,33.8,30.12,WNW,295,0.0,0.0,80,0.00,,BKN250,0.00,VWS V14.01,2013-01-20 07:24:00,
2013-01-20 02:25:00,39.5,33.8,30.12,WNW,295,0.0,0.0,80,0.00,,,0.00,VWS V14.01,2013-01-20 07:25:00,
2013-01-20 02:30:00,40.0,35.3,30.09,WNW,295,0.0,0.0,83,0.00,,BKN250,0.00,VWS V14.01,2013-01-20 07:30:00,
2013-01-20 02:35:00,40.2,35.7,30.09,WNW,295,0.0,0.0,84,0.00,,BKN250,0.00,VWS V14.01,2013-01-20 07:35:00,
2013-01-20 02:40:00,40.0,33.7,30.09,South,187,0.0,0.0,78,0.00,,BKN250,0.00,VWS V14.01,2013-01-20 07:40:00,
2013-01-20 02:45:00,40.0,33.4,30.09,South,187,0.0,0.0,77,0.00,,BKN250,0.00,VWS V14.01,2013-01-20 07:45:00,
2013-01-20 02:50:00,39.8,33.2,30.09,South,187,0.0,0.0,77,0.00,,BKN250,0.00,VWS V14.01,2013-01-20 07:50:00,
2013-01-20 02:55:00,39.6,33.0,30.09,East,85,0.0,0.0,77,0.00,,BKN250,0.00,VWS V14.01,2013-01-20 07:55:00,
2013-01-20 03:00:00,39.5,32.9,30.09,East,85,0.0,0.0,77,0.00,,BKN250,0.00,VWS V14.01,2013-01-20 08:00:00,
2013-01-20 03:05:00,39.3,32.7,30.09,North,353,0.0,0.0,77,0.00,,BKN250,0.00,VWS V14.01,2013-01-20 08:05:00,
2013-01-20 03:10:00,39.1,32.5,30.09,NW,317,0.0,0.0,77,0.00,,BKN250,0.00,VWS V14.01,2013-01-20 08:10:00,
2013-01-20 03:15:00,39.1,32.5,30.09,SE,135,0.0,0.0,77,0.00,,BKN250,0.00,VWS V14.01,2013-01-20 08:15:00,
2013-01-20 03:20:00,39.1,32.5,30.09,West,259,0.0,0.0,77,0.00,,BKN250,0.00,VWS V14.01,2013-01-20 08:20:00,
2013-01-20 03:25:00,39.1,32.5,30.09,SSW,202,0.0,0.0,77,0.00,,BKN250,0.00,VWS V14.01,2013-01-20 08:25:00,
2013-01-20 03:30:00,39.1,32.5,30.09,SSW,192,0.0,0.0,77,0.00,,BKN250,0.00,VWS V14.01,2013-01-20 08:30:00,
2013-01-20 03:35:00,39.1,32.5,30.09,SW,220,0.0,0.0,77,0.00,,BKN250,0.00,VWS V14.01,2013-01-20 08:35:00,
2013-01-20 03:40:00,39.1,32.5,30.09,West,271,0.0,0.0,77,0.00,,,0.00,VWS V14.01,2013-01-20 08:40:00,
2013-01-20 03:41:00,39.1,32.5,30.09,West,271,0.0,0.0,77,0.00,,BKN250,0.00,VWS V14.01,2013-01-20 08:41:00,
2013-01-20 03:45:00,39.1,32.5,30.09,SSE,152,0.0,0.0,77,0.00,,,0.00,VWS V14.01,2013-01-20 08:45:00,
2013-01-20 03:46:00,39.1,32.5,30.09,SSE,152,0.0,0.0,77,0.00,,BKN250,0.00,VWS V14.01,2013-01-20 08:46:00,
2013-01-20 03:50:00,39.1,32.5,30.09,WNW,286,0.0,0.0,77,0.00,,,0.00,VWS V14.01,2013-01-20 08:50:00,
2013-01-20 03:51:00,39.1,32.5,30.09,West,270,0.0,0.0,77,0.00,,BKN250,0.00,VWS V14.01,2013-01-20 08:51:00,
2013-01-20 03:55:00,39.1,32.2,30.09,SSE,167,0.0,0.0,76,0.00,,,0.00,VWS V14.01,2013-01-20 08:55:00,
2013-01-20 03:56:00,39.1,32.2,30.09,SSE,167,0.0,0.0,76,0.00,,BKN250,0.00,VWS V14.01,2013-01-20 08:56:00,
2013-01-20 04:00:00,38.9,32.0,30.06,South,171,0.0,0.0,76,0.00,,,0.00,VWS V14.01,2013-01-20 09:00:00,
2013-01-20 04:01:00,38.9,32.0,30.06,South,182,0.0,0.0,76,0.00,,BKN250,0.00,VWS V14.01,2013-01-20 09:01:00,
2013-01-20 04:05:00,38.9,32.0,30.06,South,182,0.0,0.0,76,0.00,,,0.00,VWS V14.01,2013-01-20 09:05:00,
2013-01-20 04:06:00,38.9,32.0,30.06,WNW,291,0.0,0.0,76,0.00,,BKN250,0.00,VWS V14.01,2013-01-20 09:06:00,
2013-01-20 04:10:00,39.3,33.3,30.06,South,183,0.0,0.0,79,0.00,,,0.00,VWS V14.01,2013-01-20 09:10:00,
2013-01-20 04:11:00,39.3,33.6,30.06,South,183,0.0,0.0,80,0.00,,BKN250,0.00,VWS V14.01,2013-01-20 09:11:00,
2013-01-20 04:15:00,39.6,35.2,30.06,NNW,329,0.0,0.0,84,0.00,,,0.00,VWS V14.01,2013-01-20 09:15:00,
2013-01-20 04:17:00,39.8,35.7,30.06,NNW,329,0.0,0.0,85,0.00,,BKN250,0.00,VWS V14.01,2013-01-20 09:17:00,
2013-01-20 04:20:00,40.0,35.6,30.06,South,189,0.0,0.0,84,0.00,,,0.00,VWS V14.01,2013-01-20 09:20:00,
2013-01-20 04:22:00,40.0,35.6,30.06,South,189,0.0,0.0,84,0.00,,BKN250,0.00,VWS V14.01,2013-01-20 09:22:00,
2013-01-20 04:25:00,39.8,35.4,30.06,South,189,0.0,0.0,84,0.00,,,0.00,VWS V14.01,2013-01-20 09:25:00,
2013-01-20 04:27:00,39.6,34.6,30.06,South,189,0.0,0.0,82,0.00,,BKN250,0.00,VWS V14.01,2013-01-20 09:27:00,
2013-01-20 04:30:00,39.6,34.3,30.06,South,189,0.0,0.0,81,0.00,,,0.00,VWS V14.01,2013-01-20 09:30:00,
2013-01-20 04:32:00,39.5,33.8,30.06,South,189,0.0,0.0,80,0.00,,BKN250,0.00,VWS V14.01,2013-01-20 09:32:00,
2013-01-20 04:35:00,39.5,33.8,30.06,South,189,0.0,0.0,80,0.00,,,0.00,VWS V14.01,2013-01-20 09:35:00,
2013-01-20 04:37:00,39.3,33.0,30.06,South,189,0.0,0.0,78,0.00,,BKN250,0.00,VWS V14.01,2013-01-20 09:37:00,
2013-01-20 04:40:00,39.1,32.8,30.06,South,189,0.0,0.0,78,0.00,,,0.00,VWS V14.01,2013-01-20 09:40:00,
2013-01-20 04:42:00,38.9,32.7,30.06,SSW,207,0.0,0.0,78,0.00,,BKN250,0.00,VWS V14.01,2013-01-20 09:42:00,
2013-01-20 04:45:00,38.7,32.2,30.06,SSW,207,0.0,0.0,77,0.00,,,0.00,VWS V14.01,2013-01-20 09:45:00,
2013-01-20 04:47:00,38.7,32.2,30.06,SSW,207,0.0,0.0,77,0.00,,BKN250,0.00,VWS V14.01,2013-01-20 09:47:00,
2013-01-20 04:50:00,38.7,32.2,30.06,SW,232,0.0,0.0,77,0.00,,,0.00,VWS V14.01,2013-01-20 09:50:00,
2013-01-20 04:52:00,38.6,32.0,30.06,SW,232,0.0,0.0,77,0.00,,BKN250,0.00,VWS V14.01,2013-01-20 09:52:00,
2013-01-20 04:55:00,38.4,31.8,30.06,SW,232,0.0,0.0,77,0.00,,,0.00,VWS V14.01,2013-01-20 09:55:00,
2013-01-20 04:57:00,38.4,31.8,30.06,SW,232,0.0,0.0,77,0.00,,BKN250,0.00,VWS V14.01,2013-01-20 09:57:00,
2013-01-20 05:00:00,38.4,31.8,30.06,WNW,285,0.0,0.0,77,0.00,,,0.00,VWS V14.01,2013-01-20 10:00:00,
2013-01-20 05:02:00,38.2,31.6,30.06,WNW,285,0.0,0.0,77,0.00,,BKN250,0.00,VWS V14.01,2013-01-20 10:02:00,
2013-01-20 05:05:00,38.2,31.6,30.06,WNW,285,0.0,0.0,77,0.00,,,0.00,VWS V14.01,2013-01-20 10:05:00,
2013-01-20 05:07:00,38.2,31.6,30.06,WNW,285,0.0,0.0,77,0.00,,BKN250,0.00,VWS V14.01,2013-01-20 10:07:00,
2013-01-20 05:10:00,38.0,31.5,30.06,WNW,285,0.0,0.0,77,0.00,,,0.00,VWS V14.01,2013-01-20 10:10:00,
2013-01-20 05:12:00,38.0,31.5,30.06,WNW,285,0.0,0.0,77,0.00,,BKN250,0.00,VWS V14.01,2013-01-20 10:12:00,
2013-01-20 05:15:00,38.0,31.5,30.06,WNW,285,0.0,0.0,77,0.00,,,0.00,VWS V14.01,2013-01-20 10:15:00,
2013-01-20 05:17:00,37.8,31.3,30.06,WNW,285,0.0,0.0,77,0.00,,BKN250,0.00,VWS V14.01,2013-01-20 10:17:00,
2013-01-20 05:20:00,37.8,31.3,30.06,WNW,285,0.0,0.0,77,0.00,,,0.00,VWS V14.01,2013-01-20 10:20:00,
2013-01-20 05:22:00,37.8,31.3,30.06,WNW,285,0.0,0.0,77,0.00,,BKN250,0.00,VWS V14.01,2013-01-20 10:22:00,
2013-01-20 05:25:00,37.8,31.3,30.06,WNW,285,0.0,0.0,77,0.00,,,0.00,VWS V14.01,2013-01-20 10:25:00,
2013-01-20 05:27:00,37.8,31.3,30.06,WNW,285,0.0,0.0,77,0.00,,BKN250,0.00,VWS V14.01,2013-01-20 10:27:00,
2013-01-20 05:30:00,37.8,31.3,30.06,WNW,285,0.0,0.0,77,0.00,,,0.00,VWS V14.01,2013-01-20 10:30:00,
2013-01-20 05:32:00,37.8,31.3,30.06,WNW,285,0.0,0.0,77,0.00,,BKN250,0.00,VWS V14.01,2013-01-20 10:32:00,
2013-01-20 05:35:00,37.8,31.3,30.06,WNW,285,0.0,0.0,77,0.00,,,0.00,VWS V14.01,2013-01-20 10:35:00,
2013-01-20 05:37:00,37.7,31.1,30.06,WNW,285,0.0,0.0,77,0.00,,BKN250,0.00,VWS V14.01,2013-01-20 10:37:00,
2013-01-20 05:40:00,37.7,31.1,30.06,WNW,285,0.0,0.0,77,0.00,,,0.00,VWS V14.01,2013-01-20 10:40:00,
2013-01-20 05:43:00,37.7,31.1,30.06,WNW,285,0.0,0.0,77,0.00,,BKN250,0.00,VWS V14.01,2013-01-20 10:43:00,
2013-01-20 05:45:00,37.7,31.1,30.06,WNW,285,0.0,0.0,77,0.00,,,0.00,VWS V14.01,2013-01-20 10:45:00,
2013-01-20 05:48:00,37.7,31.1,30.06,WNW,285,0.0,0.0,77,0.00,,BKN250,0.00,VWS V14.01,2013-01-20 10:48:00,
2013-01-20 05:50:00,37.7,31.1,30.06,WNW,285,0.0,0.0,77,0.00,,,0.00,VWS V14.01,2013-01-20 10:50:00,
2013-01-20 05:53:00,37.5,30.9,30.06,WNW,285,0.0,0.0,77,0.00,,BKN250,0.00,VWS V14.01,2013-01-20 10:53:00,
2013-01-20 05:55:00,37.5,30.9,30.06,WNW,285,0.0,0.0,77,0.00,,,0.00,VWS V14.01,2013-01-20 10:55:00,
2013-01-20 05:58:00,37.7,31.8,30.06,WNW,285,0.0,0.0,79,0.00,,BKN250,0.00,VWS V14.01,2013-01-20 10:58:00,
2013-01-20 06:00:00,37.7,31.8,30.06,WNW,285,0.0,0.0,79,0.00,,,0.00,VWS V14.01,2013-01-20 11:00:00,
2013-01-20 06:03:00,37.7,31.8,30.06,WNW,285,0.0,0.0,79,0.00,,BKN250,0.00,VWS V14.01,2013-01-20 11:03:00,
2013-01-20 06:05:00,37.7,31.8,30.06,WNW,285,0.0,0.0,79,0.00,,,0.00,VWS V14.01,2013-01-20 11:05:00,
2013-01-20 06:08:00,38.0,33.3,30.06,WNW,285,0.0,0.0,83,0.00,,BKN250,0.00,VWS V14.01,2013-01-20 11:08:00,
2013-01-20 06:10:00,38.0,33.3,30.06,WNW,285,0.0,0.0,83,0.00,,,0.00,VWS V14.01,2013-01-20 11:10:00,
2013-01-20 06:13:00,38.0,33.0,30.06,WNW,285,0.0,0.0,82,0.00,,BKN250,0.00,VWS V14.01,2013-01-20 11:13:00,
2013-01-20 06:15:00,37.8,32.5,30.06,WNW,285,0.0,0.0,81,0.00,,,0.00,VWS V14.01,2013-01-20 11:15:00,
2013-01-20 06:18:00,37.8,32.5,30.06,WNW,285,0.0,0.0,81,0.00,,BKN250,0.00,VWS V14.01,2013-01-20 11:18:00,
2013-01-20 06:20:00,37.7,32.1,30.06,WNW,285,0.0,0.0,80,0.00,,,0.00,VWS V14.01,2013-01-20 11:20:00,
2013-01-20 06:23:00,37.7,31.8,30.06,WNW,285,0.0,0.0,79,0.00,,BKN250,0.00,VWS V14.01,2013-01-20 11:23:00,
2013-01-20 06:25:00,37.7,31.8,30.06,WNW,285,0.0,0.0,79,0.00,,,0.00,VWS V14.01,2013-01-20 11:25:00,
2013-01-20 06:28:00,37.7,31.8,30.06,WNW,285,0.0,0.0,79,0.00,,BKN250,0.00,VWS V14.01,2013-01-20 11:28:00,
2013-01-20 06:30:00,37.7,31.8,30.06,WNW,285,0.0,0.0,79,0.00,,,0.00,VWS V14.01,2013-01-20 11:30:00,
2013-01-20 06:33:00,37.3,31.1,30.06,WNW,285,0.0,0.0,78,0.00,,BKN250,0.00,VWS V14.01,2013-01-20 11:33:00,
2013-01-20 06:35:00,37.1,30.9,30.06,WNW,285,0.0,0.0,78,0.00,,,0.00,VWS V14.01,2013-01-20 11:35:00,
2013-01-20 06:38:00,37.1,30.9,30.06,WNW,285,0.0,0.0,78,0.00,,BKN250,0.00,VWS V14.01,2013-01-20 11:38:00,
2013-01-20 06:40:00,37.1,30.9,30.06,WNW,285,0.0,0.0,78,0.00,,,0.00,VWS V14.01,2013-01-20 11:40:00,
2013-01-20 06:43:00,36.9,30.7,30.06,WNW,285,0.0,0.0,78,0.00,,BKN250,0.00,VWS V14.01,2013-01-20 11:43:00,
2013-01-20 06:45:00,36.9,30.7,30.06,WNW,285,0.0,0.0,78,0.00,,,0.00,VWS V14.01,2013-01-20 11:45:00,
2013-01-20 06:48:00,36.9,30.7,30.06,WNW,285,0.0,0.0,78,0.00,,BKN250,0.00,VWS V14.01,2013-01-20 11:48:00,
2013-01-20 06:50:00,36.9,30.7,30.06,WNW,285,0.0,0.0,78,0.00,,,0.00,VWS V14.01,2013-01-20 11:50:00,
2013-01-20 06:53:00,36.8,30.9,30.06,WNW,285,0.0,0.0,79,0.00,,BKN250,0.00,VWS V14.01,2013-01-20 11:53:00,
2013-01-20 06:55:00,36.8,30.9,30.06,WNW,285,0.0,0.0,79,0.00,,,0.00,VWS V14.01,2013-01-20 11:55:00,
2013-01-20 06:58:00,36.8,30.9,30.06,WNW,285,0.0,0.0,79,0.00,,BKN250,0.00,VWS V14.01,2013-01-20 11:58:00,
2013-01-20 07:00:00,36.8,30.9,30.06,WNW,285,0.0,0.0,79,0.00,,,0.00,VWS V14.01,2013-01-20 12:00:00,
2013-01-20 07:03:00,36.6,30.7,30.06,WNW,285,0.0,0.0,79,0.00,,BKN250,0.00,VWS V14.01,2013-01-20 12:03:00,
2013-01-20 07:05:00,36.6,30.7,30.06,WNW,285,0.0,0.0,79,0.00,,,0.00,VWS V14.01,2013-01-20 12:05:00,
2013-01-20 07:09:00,36.6,30.7,30.06,WNW,285,0.0,0.0,79,0.00,,BKN250,0.00,VWS V14.01,2013-01-20 12:09:00,
2013-01-20 07:10:00,36.6,30.7,30.06,WNW,285,0.0,0.0,79,0.00,,,0.00,VWS V14.01,2013-01-20 12:10:00,
2013-01-20 07:14:00,36.4,30.5,30.06,WNW,285,0.0,0.0,79,0.00,,BKN250,0.00,VWS V14.01,2013-01-20 12:14:00,
2013-01-20 07:15:00,36.4,30.5,30.06,WNW,285,0.0,0.0,79,0.00,,,0.00,VWS V14.01,2013-01-20 12:15:00,
2013-01-20 07:19:00,36.4,30.5,30.06,WNW,285,0.0,0.0,79,0.00,,BKN250,0.00,VWS V14.01,2013-01-20 12:19:00,
2013-01-20 07:20:00,36.4,30.5,30.06,WNW,285,0.0,0.0,79,0.00,,,0.00,VWS V14.01,2013-01-20 12:20:00,
2013-01-20 07:24:00,36.2,30.4,30.06,WNW,285,0.0,0.0,79,0.00,,BKN250,0.00,VWS V14.01,2013-01-20 12:24:00,
2013-01-20 07:25:00,36.2,30.3,30.06,WNW,285,0.0,0.0,79,0.00,,,0.00,VWS V14.01,2013-01-20 12:25:00,
2013-01-20 07:29:00,36.2,30.4,30.06,WNW,285,0.0,0.0,79,0.00,,BKN250,0.00,VWS V14.01,2013-01-20 12:29:00,
2013-01-20 07:30:00,36.2,30.3,30.06,WNW,285,0.0,0.0,79,0.00,,,0.00,VWS V14.01,2013-01-20 12:30:00,
2013-01-20 07:34:00,36.6,31.6,30.06,WNW,285,0.0,0.0,82,0.00,,BKN250,0.00,VWS V14.01,2013-01-20 12:34:00,
2013-01-20 07:35:00,36.6,31.6,30.06,WNW,285,0.0,0.0,82,0.00,,,0.00,VWS V14.01,2013-01-20 12:35:00,
2013-01-20 07:39:00,36.9,32.6,30.06,WNW,285,0.0,0.0,84,0.00,,BKN250,0.00,VWS V14.01,2013-01-20 12:39:00,
2013-01-20 07:40:00,36.9,32.6,30.06,WNW,285,0.0,0.0,84,0.00,,,0.00,VWS V14.01,2013-01-20 12:40:00,
2013-01-20 07:44:00,37.1,33.3,30.06,WNW,285,0.0,0.0,86,0.00,,BKN250,0.00,VWS V14.01,2013-01-20 12:44:00,
2013-01-20 07:45:00,37.1,33.3,30.06,WNW,285,0.0,0.0,86,0.00,,,0.00,VWS V14.01,2013-01-20 12:45:00,
2013-01-20 07:49:00,37.1,33.0,30.06,North,2,0.0,0.0,85,0.00,,BKN250,0.00,VWS V14.01,2013-01-20 12:49:00,
2013-01-20 07:50:00,37.1,33.0,30.06,North,2,0.0,0.0,85,0.00,,,0.00,VWS V14.01,2013-01-20 12:50:00,
2013-01-20 07:54:00,37.1,32.7,30.06,North,2,0.0,0.0,84,0.00,,BKN250,0.00,VWS V14.01,2013-01-20 12:54:00,
2013-01-20 07:55:00,37.1,32.7,30.06,North,2,0.0,0.0,84,0.00,,,0.00,VWS V14.01,2013-01-20 12:55:00,
2013-01-20 07:59:00,37.1,32.4,30.06,North,2,0.0,0.0,83,0.00,,BKN250,0.00,VWS V14.01,2013-01-20 12:59:00,
2013-01-20 08:00:00,37.1,32.4,30.06,North,2,0.0,0.0,83,0.00,,,0.00,VWS V14.01,2013-01-20 13:00:00,
2013-01-20 08:04:00,37.1,31.5,30.06,SSW,206,0.0,0.0,80,0.00,,BKN250,0.00,VWS V14.01,2013-01-20 13:04:00,
2013-01-20 08:05:00,37.1,31.5,30.06,SSW,206,0.0,0.0,80,0.00,,,0.00,VWS V14.01,2013-01-20 13:05:00,
2013-01-20 08:09:00,37.3,31.7,30.06,SSW,206,0.0,0.0,80,0.00,,BKN250,0.00,VWS V14.01,2013-01-20 13:09:00,
2013-01-20 08:10:00,37.3,31.7,30.06,SSW,206,0.0,0.0,80,0.00,,,0.00,VWS V14.01,2013-01-20 13:10:00,
2013-01-20 08:14:00,37.3,31.4,30.06,SSW,206,0.0,0.0,79,0.00,,BKN250,0.00,VWS V14.01,2013-01-20 13:14:00,
2013-01-20 08:15:00,37.3,31.4,30.06,SSW,206,0.0,0.0,79,0.00,,,0.00,VWS V14.01,2013-01-20 13:15:00,
2013-01-20 08:20:00,37.5,31.6,30.06,SSW,206,0.0,0.0,79,0.00,,BKN250,0.00,VWS V14.01,2013-01-20 13:20:00,
2013-01-20 08:25:00,37.8,33.2,30.06,South,190,0.0,0.0,83,0.00,,BKN250,0.00,VWS V14.01,2013-01-20 13:25:00,
2013-01-20 08:30:00,38.2,33.8,30.06,WNW,286,0.0,0.0,84,0.00,,BKN250,0.00,VWS V14.01,2013-01-20 13:30:00,
2013-01-20 08:35:00,38.4,33.7,30.06,WNW,286,0.0,0.0,83,0.00,,BKN250,0.00,VWS V14.01,2013-01-20 13:35:00,
2013-01-20 08:40:00,38.6,32.9,30.06,WNW,286,0.0,0.0,80,0.00,,BKN250,0.00,VWS V14.01,2013-01-20 13:40:00,
2013-01-20 08:45:00,38.6,32.6,30.09,South,169,0.0,0.0,79,0.00,,BKN250,0.00,VWS V14.01,2013-01-20 13:45:00,
2013-01-20 08:50:00,38.6,32.6,30.09,South,169,0.0,0.0,79,0.00,,BKN250,0.00,VWS V14.01,2013-01-20 13:50:00,
2013-01-20 08:55:00,39.3,32.7,30.09,West,274,0.0,0.0,77,0.00,,BKN250,0.00,VWS V14.01,2013-01-20 13:55:00,
2013-01-20 09:00:00,39.6,32.7,30.09,West,274,0.0,0.0,76,0.00,,BKN250,0.00,VWS V14.01,2013-01-20 14:00:00,
2013-01-20 09:05:00,40.0,32.7,30.09,West,274,0.0,0.0,75,0.00,,BKN250,0.00,VWS V14.01,2013-01-20 14:05:00,
2013-01-20 09:10:00,40.2,32.9,30.09,West,274,0.0,0.0,75,0.00,,BKN250,0.00,VWS V14.01,2013-01-20 14:10:00,
2013-01-20 09:15:00,40.7,33.1,30.09,WNW,284,0.0,0.0,74,0.00,,BKN250,0.00,VWS V14.01,2013-01-20 14:15:00,
2013-01-20 09:20:00,41.1,33.1,30.09,South,179,0.0,0.0,73,0.00,,BKN250,0.00,VWS V14.01,2013-01-20 14:20:00,
2013-01-20 09:25:00,41.4,33.5,30.09,South,169,0.0,0.0,73,0.00,,BKN250,0.00,VWS V14.01,2013-01-20 14:25:00,
2013-01-20 09:30:00,41.8,32.0,30.09,WNW,285,0.0,0.0,68,0.00,,BKN250,0.00,VWS V14.01,2013-01-20 14:30:00,
2013-01-20 09:35:00,42.3,32.5,30.09,SSE,163,0.0,0.0,68,0.00,,BKN250,0.00,VWS V14.01,2013-01-20 14:35:00,
2013-01-20 09:40:00,44.3,38.2,30.09,South,179,0.0,0.0,79,0.00,,BKN250,0.00,VWS V14.01,2013-01-20 14:40:00,
2013-01-20 09:45:00,45.2,37.4,30.09,SSE,157,8.1,8.5,74,0.00,,BKN250,0.00,VWS V14.01,2013-01-20 14:45:00,
2013-01-20 09:50:00,45.2,37.1,30.09,South,189,0.0,0.0,73,0.00,,BKN250,0.00,VWS V14.01,2013-01-20 14:50:00,
2013-01-20 09:55:00,46.5,36.5,30.09,South,181,0.0,0.0,68,0.00,,,0.00,VWS V14.01,2013-01-20 14:55:00,
2013-01-20 09:56:00,46.5,36.5,30.09,South,181,0.0,0.0,68,0.00,,BKN250,0.00,VWS V14.01,2013-01-20 14:56:00,
2013-01-20 10:00:00,46.5,34.2,30.09,SSE,155,0.0,9.9,62,0.00,,,0.00,VWS V14.01,2013-01-20 15:00:00,
2013-01-20 10:01:00,46.5,34.2,30.09,SSE,155,0.0,0.0,62,0.00,,SCT250,0.00,VWS V14.01,2013-01-20 15:01:00,
2013-01-20 10:05:00,46.5,34.2,30.09,South,182,0.0,0.0,62,0.00,,,0.00,VWS V14.01,2013-01-20 15:05:00,
2013-01-20 10:06:00,46.5,34.2,30.09,South,174,9.4,9.9,62,0.00,,SCT250,0.00,VWS V14.01,2013-01-20 15:06:00,
2013-01-20 10:10:00,46.5,34.2,30.09,SSE,168,9.4,9.9,62,0.00,,,0.00,VWS V14.01,2013-01-20 15:10:00,
2013-01-20 10:11:00,46.5,34.2,30.09,North,353,0.0,9.9,62,0.00,,SCT250,0.00,VWS V14.01,2013-01-20 15:11:00,
2013-01-20 10:15:00,46.5,34.2,30.09,SSE,150,6.7,9.9,62,0.00,,,0.00,VWS V14.01,2013-01-20 15:15:00,
2013-01-20 10:16:00,46.5,34.2,30.09,SSE,166,8.1,8.5,62,0.00,,SCT250,0.00,VWS V14.01,2013-01-20 15:16:00,
2013-01-20 10:20:00,47.2,33.6,30.09,SSE,165,10.7,11.3,59,0.00,,,0.00,VWS V14.01,2013-01-20 15:20:00,
2013-01-20 10:21:00,47.2,33.6,30.09,SSE,165,10.7,11.3,59,0.00,,SCT250,0.00,VWS V14.01,2013-01-20 15:21:00,
2013-01-20 10:25:00,47.4,34.6,30.09,South,169,0.0,11.3,61,0.00,,,0.00,VWS V14.01,2013-01-20 15:25:00,
2013-01-20 10:26:00,47.6,34.0,30.09,South,173,0.0,0.0,59,0.00,,SCT250,0.00,VWS V14.01,2013-01-20 15:26:00,
2013-01-20 10:30:00,47.7,34.1,30.09,SSE,161,0.0,7.0,59,0.00,,,0.00,VWS V14.01,2013-01-20 15:30:00,
2013-01-20 10:31:00,47.9,34.3,30.09,SSE,161,0.0,0.0,59,0.00,,SCT250,0.00,VWS V14.01,2013-01-20 15:31:00,
2013-01-20 10:35:00,47.9,34.3,30.09,South,187,6.7,15.5,59,0.00,,,0.00,VWS V14.01,2013-01-20 15:35:00,
2013-01-20 10:36:00,47.9,34.3,30.09,South,176,9.4,9.9,59,0.00,,SCT250,0.00,VWS V14.01,2013-01-20 15:36:00,
2013-01-20 10:40:00,48.3,33.3,30.09,South,171,9.4,9.9,56,0.00,,,0.00,VWS V14.01,2013-01-20 15:40:00,
2013-01-20 10:41:00,48.3,33.3,30.09,South,188,8.1,9.9,56,0.00,,SCT250,0.00,VWS V14.01,2013-01-20 15:41:00,
2013-01-20 10:45:00,48.6,33.7,30.09,South,179,8.1,9.9,56,0.00,,,0.00,VWS V14.01,2013-01-20 15:45:00,
2013-01-20 10:46:00,48.6,33.7,30.09,West,273,8.1,8.5,56,0.00,,SCT250,0.00,VWS V14.01,2013-01-20 15:46:00,
2013-01-20 10:50:00,49.0,35.3,30.09,South,180,12.1,12.7,59,0.00,,,0.00,VWS V14.01,2013-01-20 15:50:00,
2013-01-20 10:51:00,49.0,35.3,30.09,SSE,160,6.7,12.7,59,0.00,,SCT250,0.00,VWS V14.01,2013-01-20 15:51:00,
2013-01-20 10:55:00,49.9,37.4,30.09,South,174,8.1,12.7,62,0.00,,,0.00,VWS V14.01,2013-01-20 15:55:00,
2013-01-20 10:56:00,50.4,37.9,30.09,South,174,0.0,8.5,62,0.00,,SCT250,0.00,VWS V14.01,2013-01-20 15:56:00,
2013-01-20 11:00:00,50.6,37.7,30.06,West,278,8.1,9.9,61,0.00,,,0.00,VWS V14.01,2013-01-20 16:00:00,
2013-01-20 11:02:00,51.0,38.0,30.06,SSE,160,0.0,8.5,61,0.00,,FEW250,0.00,VWS V14.01,2013-01-20 16:02:00,
2013-01-20 11:05:00,51.5,38.5,30.06,SSW,198,9.4,9.9,61,0.00,,,0.00,VWS V14.01,2013-01-20 16:05:00,
2013-01-20 11:07:00,51.5,36.4,30.06,South,182,0.0,9.9,56,0.00,,FEW250,0.00,VWS V14.01,2013-01-20 16:07:00,
2013-01-20 11:10:00,51.7,36.5,30.06,SSE,165,0.0,9.9,56,0.00,,,0.00,VWS V14.01,2013-01-20 16:10:00,
2013-01-20 11:12:00,51.7,36.5,30.06,SSE,162,8.1,8.5,56,0.00,,FEW250,0.00,VWS V14.01,2013-01-20 16:12:00,
2013-01-20 11:15:00,51.7,36.5,30.06,South,187,9.4,9.9,56,0.00,,,0.00,VWS V14.01,2013-01-20 16:15:00,
2013-01-20 11:17:00,51.7,36.5,30.06,SSE,167,6.7,9.9,56,0.00,,FEW250,0.00,VWS V14.01,2013-01-20 16:17:00,
2013-01-20 11:20:00,51.5,36.4,30.06,South,171,8.1,9.9,56,0.00,,,0.00,VWS V14.01,2013-01-20 16:20:00,
2013-01-20 11:22:00,51.7,36.5,30.06,South,177,0.0,8.5,56,0.00,,FEW250,0.00,VWS V14.01,2013-01-20 16:22:00,
2013-01-20 11:25:00,51.7,36.5,30.06,SSE,167,9.4,9.9,56,0.00,,,0.00,VWS V14.01,2013-01-20 16:25:00,
2013-01-20 11:27:00,51.9,36.7,30.06,SSE,166,9.4,9.9,56,0.00,,FEW250,0.00,VWS V14.01,2013-01-20 16:27:00,
2013-01-20 11:30:00,52.1,36.9,30.06,SSW,209,10.7,11.3,56,0.00,,,0.00,VWS V14.01,2013-01-20 16:30:00,
2013-01-20 11:32:00,52.1,36.9,30.06,South,171,14.8,15.5,56,0.00,,FEW250,0.00,VWS V14.01,2013-01-20 16:32:00,
2013-01-20 11:35:00,52.1,36.9,30.06,South,169,8.1,15.5,56,0.00,,,0.00,VWS V14.01,2013-01-20 16:35:00,
2013-01-20 11:37:00,53.0,36.3,30.06,SSE,168,8.1,8.5,53,0.00,,FEW250,0.00,VWS V14.01,2013-01-20 16:37:00,
2013-01-20 11:40:00,53.1,36.5,30.06,South,181,8.1,8.5,53,0.00,,,0.00,VWS V14.01,2013-01-20 16:40:00,
2013-01-20 11:42:00,53.3,36.6,30.06,South,172,6.7,8.5,53,0.00,,FEW250,0.00,VWS V14.01,2013-01-20 16:42:00,
2013-01-20 11:45:00,53.5,36.8,30.06,SSE,165,0.0,8.5,53,0.00,,,0.00,VWS V14.01,2013-01-20 16:45:00,
2013-01-20 11:47:00,53.5,36.8,30.06,South,181,0.0,0.0,53,0.00,,FEW250,0.00,VWS V14.01,2013-01-20 16:47:00,
2013-01-20 11:50:00,53.9,37.1,30.06,SSE,157,9.4,9.9,53,0.00,,,0.00,VWS V14.01,2013-01-20 16:50:00,
2013-01-20 11:53:00,54.0,37.3,30.06,South,172,6.7,9.9,53,0.00,,FEW250,0.00,VWS V14.01,2013-01-20 16:53:00,
2013-01-20 11:55:00,54.0,37.3,30.06,South,175,10.7,11.3,53,0.00,,,0.00,VWS V14.01,2013-01-20 16:55:00,
2013-01-20 11:58:00,54.2,38.4,30.06,SSE,164,10.7,11.3,55,0.00,,FEW250,0.00,VWS V14.01,2013-01-20 16:58:00,
2013-01-20 12:00:00,54.2,38.4,30.06,SSE,166,9.4,19.7,55,0.00,,,0.00,VWS V14.01,2013-01-20 17:00:00,
2013-01-20 12:03:00,54.2,38.4,30.03,SSE,149,0.0,12.7,55,0.00,,FEW250,0.00,VWS V14.01,2013-01-20 17:03:00,
2013-01-20 12:05:00,55.3,38.0,30.03,South,174,8.1,12.7,52,0.00,,,0.00,VWS V14.01,2013-01-20 17:05:00,
2013-01-20 12:08:00,55.3,38.0,30.03,SSE,164,10.7,11.3,52,0.00,,FEW250,0.00,VWS V14.01,2013-01-20 17:08:00,
2013-01-20 12:10:00,55.3,38.0,30.03,SSW,210,12.1,12.7,52,0.00,,,0.00,VWS V14.01,2013-01-20 17:10:00,
2013-01-20 12:13:00,55.3,38.0,30.03,SSE,162,12.1,12.7,52,0.00,,FEW250,0.00,VWS V14.01,2013-01-20 17:13:00,
2013-01-20 12:15:00,56.9,39.5,30.03,SSE,162,12.1,12.7,52,0.00,,,0.00,VWS V14.01,2013-01-20 17:15:00,
2013-01-20 12:18:00,56.9,39.5,30.03,South,169,9.4,12.7,52,0.00,,FEW250,0.00,VWS V14.01,2013-01-20 17:18:00,
2013-01-20 12:20:00,56.9,39.5,30.03,NW,313,14.8,15.5,52,0.00,,,0.00,VWS V14.01,2013-01-20 17:20:00,
2013-01-20 12:23:00,56.9,39.5,30.03,SSE,160,10.7,15.5,52,0.00,,FEW250,0.00,VWS V14.01,2013-01-20 17:23:00,
2013-01-20 12:25:00,56.9,39.5,30.03,SSE,166,10.7,15.5,52,0.00,,,0.00,VWS V14.01,2013-01-20 17:25:00,
2013-01-20 12:28:00,57.1,39.7,30.00,SSE,166,10.7,11.3,52,0.00,,FEW250,0.00,VWS V14.01,2013-01-20 17:28:00,
2013-01-20 12:30:00,57.1,39.7,30.00,South,178,9.4,11.3,52,0.00,,,0.00,VWS V14.01,2013-01-20 17:30:00,
2013-01-20 12:33:00,57.1,39.7,30.00,SSE,160,8.1,9.9,52,0.00,,FEW250,0.00,VWS V14.01,2013-01-20 17:33:00,
2013-01-20 12:35:00,57.1,39.7,30.00,South,171,0.0,9.9,52,0.00,,,0.00,VWS V14.01,2013-01-20 17:35:00,
2013-01-20 12:38:00,57.3,39.8,30.00,South,177,8.1,8.5,52,0.00,,FEW250,0.00,VWS V14.01,2013-01-20 17:38:00,
2013-01-20 12:40:00,57.5,40.0,30.00,South,173,6.7,8.5,52,0.00,,,0.00,VWS V14.01,2013-01-20 17:40:00,
2013-01-20 12:43:00,57.5,40.0,30.00,SSE,167,12.1,16.9,52,0.00,,FEW250,0.00,VWS V14.01,2013-01-20 17:43:00,
2013-01-20 12:45:00,58.0,40.5,30.00,SSW,206,12.1,16.9,52,0.00,,,0.00,VWS V14.01,2013-01-20 17:45:00,
2013-01-20 12:49:00,58.2,40.7,30.00,SE,145,10.7,12.7,52,0.00,,FEW250,0.00,VWS V14.01,2013-01-20 17:49:00,
2013-01-20 12:50:00,58.2,40.7,30.00,SE,132,0.0,12.7,52,0.00,,,0.00,VWS V14.01,2013-01-20 17:50:00,
2013-01-20 12:54:00,58.5,41.0,30.00,SSE,168,8.1,8.5,52,0.00,,FEW250,0.00,VWS V14.01,2013-01-20 17:54:00,
2013-01-20 12:55:00,58.5,41.0,30.00,WNW,287,6.7,8.5,52,0.00,,,0.00,VWS V14.01,2013-01-20 17:55:00,
2013-01-20 12:59:00,58.7,41.2,30.00,SE,141,0.0,7.0,52,0.00,,FEW250,0.00,VWS V14.01,2013-01-20 17:59:00,
2013-01-20 13:00:00,58.7,41.2,30.00,SE,141,0.0,7.0,52,0.00,,,0.00,VWS V14.01,2013-01-20 18:00:00,
2013-01-20 13:04:00,59.1,41.5,30.00,SE,134,9.4,15.5,52,0.00,,FEW250,0.00,VWS V14.01,2013-01-20 18:04:00,
2013-01-20 13:05:00,59.1,41.5,30.00,SE,140,10.7,15.5,52,0.00,,,0.00,VWS V14.01,2013-01-20 18:05:00,
2013-01-20 13:09:00,59.3,41.7,30.00,SSE,164,12.1,12.7,52,0.00,,FEW250,0.00,VWS V14.01,2013-01-20 18:09:00,
2013-01-20 13:10:00,59.3,41.7,30.00,SSE,164,12.1,12.7,52,0.00,,,0.00,VWS V14.01,2013-01-20 18:10:00,
2013-01-20 13:14:00,59.4,41.8,30.00,South,189,6.7,12.7,52,0.00,,FEW250,0.00,VWS V14.01,2013-01-20 18:14:00,
2013-01-20 13:15:00,59.4,41.8,30.00,South,189,6.7,12.7,52,0.00,,,0.00,VWS V14.01,2013-01-20 18:15:00,
2013-01-20 13:19:00,59.4,41.8,30.00,South,189,6.7,7.0,52,0.00,,FEW250,0.00,VWS V14.01,2013-01-20 18:19:00,
2013-01-20 13:20:00,59.4,41.8,30.00,South,189,6.7,7.0,52,0.00,,,0.00,VWS V14.01,2013-01-20 18:20:00,
2013-01-20 13:24:00,59.4,41.8,30.00,South,189,6.7,7.0,52,0.00,,FEW250,0.00,VWS V14.01,2013-01-20 18:24:00,
2013-01-20 13:25:00,59.4,41.8,30.00,South,189,6.7,7.0,52,0.00,,,0.00,VWS V14.01,2013-01-20 18:25:00,
2013-01-20 13:29:00,59.6,42.0,30.00,SSE,154,9.4,9.9,52,0.00,,FEW250,0.00,VWS V14.01,2013-01-20 18:29:00,
2013-01-20 13:30:00,59.6,42.0,29.97,SSE,154,9.4,9.9,52,0.00,,,0.00,VWS V14.01,2013-01-20 18:30:00,
2013-01-20 13:34:00,59.8,41.7,29.97,SSE,154,9.4,9.9,51,0.00,,FEW250,0.00,VWS V14.01,2013-01-20 18:34:00,
2013-01-20 13:35:00,59.8,41.7,29.97,South,174,8.1,9.9,51,0.00,,,0.00,VWS V14.01,2013-01-20 18:35:00,
2013-01-20 13:39:00,60.0,41.8,29.97,SSE,157,12.1,12.7,51,0.00,,FEW250,0.00,VWS V14.01,2013-01-20 18:39:00,
2013-01-20 13:40:00,60.0,41.8,29.97,SSE,157,12.1,12.7,51,0.00,,,0.00,VWS V14.01,2013-01-20 18:40:00,
2013-01-20 13:45:00,60.0,41.8,29.97,South,176,0.0,16.9,51,0.00,,FEW250,0.00,VWS V14.01,2013-01-20 18:45:00,
2013-01-20 13:50:00,60.2,42.0,29.97,South,176,0.0,0.0,51,0.00,,FEW250,0.00,VWS V14.01,2013-01-20 18:50:00,
2013-01-20 13:55:00,60.3,42.2,29.97,SSE,165,10.7,11.3,51,0.00,,FEW250,0.00,VWS V14.01,2013-01-20 18:55:00,
2013-01-20 14:00:00,60.7,42.5,29.97,SSE,165,10.7,11.3,51,0.00,,FEW250,0.00,VWS V14.01,2013-01-20 19:00:00,
2013-01-20 14:05:00,60.7,42.5,29.97,SSE,165,10.7,11.3,51,0.00,,FEW250,0.00,VWS V14.01,2013-01-20 19:05:00,
2013-01-20 14:10:00,60.9,42.7,29.97,SSE,161,8.1,11.3,51,0.00,,FEW250,0.00,VWS V14.01,2013-01-20 19:10:00,
2013-01-20 14:15:00,61.4,43.2,29.97,SSE,161,8.1,8.5,51,0.00,,FEW250,0.00,VWS V14.01,2013-01-20 19:15:00,
2013-01-20 14:20:00,61.6,43.3,29.97,SSE,147,12.1,12.7,51,0.00,,FEW250,0.00,VWS V14.01,2013-01-20 19:20:00,
2013-01-20 14:25:00,61.6,43.3,29.97,SSE,166,8.1,12.7,51,0.00,,FEW250,0.00,VWS V14.01,2013-01-20 19:25:00,
2013-01-20 14:30:00,61.6,43.3,29.97,South,173,16.1,16.9,51,0.00,,FEW250,0.00,VWS V14.01,2013-01-20 19:30:00,
2013-01-20 14:35:00,61.4,43.2,29.97,SSE,166,10.7,11.3,51,0.00,,FEW250,0.00,VWS V14.01,2013-01-20 19:35:00,
2013-01-20 14:40:00,61.4,43.2,29.97,ESE,104,10.7,11.3,51,0.00,,FEW250,0.00,VWS V14.01,2013-01-20 19:40:00,
2013-01-20 14:45:00,61.8,43.5,29.97,South,174,12.1,12.7,51,0.00,,FEW250,0.00,VWS V14.01,2013-01-20 19:45:00,
2013-01-20 14:50:00,61.6,43.3,29.97,South,185,0.0,0.0,51,0.00,,FEW250,0.00,VWS V14.01,2013-01-20 19:50:00,
2013-01-20 14:55:00,61.6,43.3,29.97,South,191,12.1,12.7,51,0.00,,FEW250,0.00,VWS V14.01,2013-01-20 19:55:00,
2013-01-20 15:00:00,61.4,43.2,29.97,SSE,165,8.1,8.5,51,0.00,,FEW250,0.00,VWS V14.01,2013-01-20 20:00:00,
2013-01-20 15:05:00,61.2,43.0,29.97,South,171,0.0,0.0,51,0.00,,FEW250,0.00,VWS V14.01,2013-01-20 20:05:00,
2013-01-20 15:10:00,61.2,43.0,29.97,SSE,161,12.1,12.7,51,0.00,,,0.00,VWS V14.01,2013-01-20 20:10:00,
2013-01-20 15:11:00,61.4,43.2,29.97,SSE,161,12.1,12.7,51,0.00,,FEW250,0.00,VWS V14.01,2013-01-20 20:11:00,
2013-01-20 15:15:00,61.2,43.0,29.97,SSW,193,10.7,12.7,51,0.00,,,0.00,VWS V14.01,2013-01-20 20:15:00,
2013-01-20 15:16:00,61.2,43.0,29.97,SSW,193,10.7,11.3,51,0.00,,FEW250,0.00,VWS V14.01,2013-01-20 20:16:00,
2013-01-20 15:20:00,61.2,43.0,29.97,South,177,18.8,19.7,51,0.00,,,0.00,VWS V14.01,2013-01-20 20:20:00,
2013-01-20 15:21:00,61.2,43.0,29.97,SSE,166,6.7,19.7,51,0.00,,FEW250,0.00,VWS V14.01,2013-01-20 20:21:00,
2013-01-20 15:25:00,61.2,43.0,29.97,SSE,147,10.7,19.7,51,0.00,,,0.00,VWS V14.01,2013-01-20 20:25:00,
2013-01-20 15:26:00,61.2,43.0,29.97,SSE,147,10.7,11.3,51,0.00,,FEW250,0.00,VWS V14.01,2013-01-20 20:26:00,
2013-01-20 15:30:00,61.2,43.0,29.97,SSE,161,12.1,12.7,51,0.00,,,0.00,VWS V14.01,2013-01-20 20:30:00,
2013-01-20 15:31:00,61.2,43.0,29.97,SSE,161,12.1,12.7,51,0.00,,FEW250,0.00,VWS V14.01,2013-01-20 20:31:00,
2013-01-20 15:35:00,61.2,43.0,29.97,South,169,10.7,15.5,51,0.00,,,0.00,VWS V14.01,2013-01-20 20:35:00,
2013-01-20 15:36:00,61.2,43.0,29.97,SSE,165,12.1,12.7,51,0.00,,FEW250,0.00,VWS V14.01,2013-01-20 20:36:00,
2013-01-20 15:40:00,61.1,42.8,29.97,SSE,162,12.1,15.5,51,0.00,,,0.00,VWS V14.01,2013-01-20 20:40:00,
2013-01-20 15:41:00,61.1,42.8,29.97,SSE,162,12.1,12.7,51,0.00,,FEW250,0.00,VWS V14.01,2013-01-20 20:41:00,
2013-01-20 15:45:00,61.1,42.8,29.97,SSE,155,6.7,12.7,51,0.00,,,0.00,VWS V14.01,2013-01-20 20:45:00,
2013-01-20 15:46:00,61.1,42.8,29.97,SSE,155,6.7,7.0,51,0.00,,FEW250,0.00,VWS V14.01,2013-01-20 20:46:00,
2013-01-20 15:50:00,61.1,42.8,29.97,SSE,166,0.0,8.5,51,0.00,,,0.00,VWS V14.01,2013-01-20 20:50:00,
2013-01-20 15:51:00,61.1,42.8,29.97,SSE,162,0.0,0.0,51,0.00,,FEW250,0.00,VWS V14.01,2013-01-20 20:51:00,
2013-01-20 15:55:00,61.2,43.0,29.97,SSE,147,0.0,0.0,51,0.00,,,0.00,VWS V14.01,2013-01-20 20:55:00,
2013-01-20 15:57:00,61.2,43.0,29.97,SSE,147,0.0,0.0,51,0.00,,FEW250,0.00,VWS V14.01,2013-01-20 20:57:00,
2013-01-20 16:00:00,61.2,43.0,29.97,SSE,161,6.7,7.0,51,0.00,,,0.00,VWS V14.01,2013-01-20 21:00:00,
2013-01-20 16:02:00,61.1,42.8,29.97,SSE,163,6.7,7.0,51,0.00,,CLR,0.00,VWS V14.01,2013-01-20 21:02:00,
2013-01-20 16:05:00,61.2,43.0,29.97,SSE,166,8.1,8.5,51,0.00,,,0.00,VWS V14.01,2013-01-20 21:05:00,
2013-01-20 16:07:00,61.2,43.0,29.97,SSE,166,8.1,8.5,51,0.00,,CLR,0.00,VWS V14.01,2013-01-20 21:07:00,
2013-01-20 16:10:00,61.4,43.2,29.97,SSE,157,0.0,8.5,51,0.00,,,0.00,VWS V14.01,2013-01-20 21:10:00,
2013-01-20 16:12:00,61.4,43.2,29.97,South,170,10.7,11.3,51,0.00,,CLR,0.00,VWS V14.01,2013-01-20 21:12:00,
2013-01-20 16:15:00,61.4,43.2,29.97,South,172,9.4,11.3,51,0.00,,,0.00,VWS V14.01,2013-01-20 21:15:00,
2013-01-20 16:17:00,61.2,43.0,29.97,South,172,9.4,9.9,51,0.00,,CLR,0.00,VWS V14.01,2013-01-20 21:17:00,
2013-01-20 16:20:00,61.2,43.0,29.97,South,172,6.7,9.9,51,0.00,,,0.00,VWS V14.01,2013-01-20 21:20:00,
2013-01-20 16:22:00,61.1,42.8,29.97,South,172,6.7,7.0,51,0.00,,CLR,0.00,VWS V14.01,2013-01-20 21:22:00,
2013-01-20 16:25:00,60.9,42.7,29.97,South,172,6.7,7.0,51,0.00,,,0.00,VWS V14.01,2013-01-20 21:25:00,
2013-01-20 16:27:00,60.9,42.7,29.97,South,172,6.7,7.0,51,0.00,,CLR,0.00,VWS V14.01,2013-01-20 21:27:00,
2013-01-20 16:30:00,60.9,42.7,29.97,SSE,149,8.1,9.9,51,0.00,,,0.00,VWS V14.01,2013-01-20 21:30:00,
2013-01-20 16:33:00,60.7,42.5,29.97,SSE,149,8.1,8.5,51,0.00,,CLR,0.00,VWS V14.01,2013-01-20 21:33:00,
2013-01-20 16:35:00,60.7,42.5,29.97,SSE,149,8.1,8.5,51,0.00,,,0.00,VWS V14.01,2013-01-20 21:35:00,
2013-01-20 16:38:00,60.5,42.3,29.97,SSE,162,8.1,8.5,51,0.00,,CLR,0.00,VWS V14.01,2013-01-20 21:38:00,
2013-01-20 16:40:00,60.5,42.3,29.97,SSE,153,0.0,8.5,51,0.00,,,0.00,VWS V14.01,2013-01-20 21:40:00,
2013-01-20 16:43:00,60.3,42.2,29.97,SSE,167,0.0,0.0,51,0.00,,CLR,0.00,VWS V14.01,2013-01-20 21:43:00,
2013-01-20 16:45:00,60.3,42.2,29.97,SSE,167,0.0,0.0,51,0.00,,,0.00,VWS V14.01,2013-01-20 21:45:00,
2013-01-20 16:48:00,60.2,42.0,29.97,SSE,167,0.0,0.0,51,0.00,,CLR,0.00,VWS V14.01,2013-01-20 21:48:00,
2013-01-20 16:50:00,60.2,42.0,29.97,SSE,167,0.0,0.0,51,0.00,,,0.00,VWS V14.01,2013-01-20 21:50:00,
2013-01-20 16:53:00,60.0,41.8,29.97,SSE,167,0.0,0.0,51,0.00,,CLR,0.00,VWS V14.01,2013-01-20 21:53:00,
2013-01-20 16:55:00,60.0,41.8,29.97,SSE,167,0.0,0.0,51,0.00,,,0.00,VWS V14.01,2013-01-20 21:55:00,
2013-01-20 16:58:00,59.8,41.7,29.97,SSE,152,0.0,0.0,51,0.00,,CLR,0.00,VWS V14.01,2013-01-20 21:58:00,
2013-01-20 17:00:00,59.6,42.0,29.97,SSE,152,0.0,0.0,52,0.00,,,0.00,VWS V14.01,2013-01-20 22:00:00,
2013-01-20 17:03:00,59.4,41.8,29.97,SSE,152,0.0,0.0,52,0.00,,CLR,0.00,VWS V14.01,2013-01-20 22:03:00,
2013-01-20 17:05:00,59.3,41.7,29.97,SSE,152,0.0,0.0,52,0.00,,,0.00,VWS V14.01,2013-01-20 22:05:00,
2013-01-20 17:08:00,59.1,41.5,29.97,SSE,152,0.0,0.0,52,0.00,,CLR,0.00,VWS V14.01,2013-01-20 22:08:00,
2013-01-20 17:10:00,59.1,41.5,29.97,NNW,338,0.0,0.0,52,0.00,,,0.00,VWS V14.01,2013-01-20 22:10:00,
2013-01-20 17:13:00,58.7,41.2,29.97,NNW,338,0.0,0.0,52,0.00,,CLR,0.00,VWS V14.01,2013-01-20 22:13:00,
2013-01-20 17:15:00,58.7,41.2,29.97,NNW,338,0.0,0.0,52,0.00,,,0.00,VWS V14.01,2013-01-20 22:15:00,
2013-01-20 17:19:00,58.4,40.8,29.97,NNW,338,0.0,0.0,52,0.00,,CLR,0.00,VWS V14.01,2013-01-20 22:19:00,
2013-01-20 17:20:00,58.4,40.8,29.97,NNW,338,0.0,0.0,52,0.00,,,0.00,VWS V14.01,2013-01-20 22:20:00,
2013-01-20 17:24:00,58.4,40.8,29.97,NNW,338,0.0,0.0,52,0.00,,CLR,0.00,VWS V14.01,2013-01-20 22:24:00,
2013-01-20 17:25:00,58.0,40.5,29.97,NNW,338,0.0,0.0,52,0.00,,,0.00,VWS V14.01,2013-01-20 22:25:00,
2013-01-20 17:29:00,57.8,40.3,29.97,NNW,338,0.0,0.0,52,0.00,,CLR,0.00,VWS V14.01,2013-01-20 22:29:00,
2013-01-20 17:30:00,57.6,40.2,29.97,NNW,338,0.0,0.0,52,0.00,,,0.00,VWS V14.01,2013-01-20 22:30:00,
2013-01-20 17:34:00,57.5,40.0,29.97,NNW,338,0.0,0.0,52,0.00,,CLR,0.00,VWS V14.01,2013-01-20 22:34:00,
2013-01-20 17:35:00,57.5,40.0,29.97,NNW,338,0.0,0.0,52,0.00,,,0.00,VWS V14.01,2013-01-20 22:35:00,
2013-01-20 17:39:00,57.1,39.7,29.97,NNW,338,0.0,0.0,52,0.00,,CLR,0.00,VWS V14.01,2013-01-20 22:39:00,
2013-01-20 17:40:00,56.7,39.3,30.00,NNW,338,0.0,0.0,52,0.00,,,0.00,VWS V14.01,2013-01-20 22:40:00,
2013-01-20 17:44:00,56.6,39.2,30.00,NNW,338,0.0,0.0,52,0.00,,CLR,0.00,VWS V14.01,2013-01-20 22:44:00,
2013-01-20 17:45:00,56.6,39.2,30.00,NNW,338,0.0,0.0,52,0.00,,,0.00,VWS V14.01,2013-01-20 22:45:00,
2013-01-20 17:49:00,56.2,38.8,30.00,NNW,338,0.0,0.0,52,0.00,,CLR,0.00,VWS V14.01,2013-01-20 22:49:00,
2013-01-20 17:50:00,56.2,38.8,30.00,NNW,338,0.0,0.0,52,0.00,,,0.00,VWS V14.01,2013-01-20 22:50:00,
2013-01-20 17:54:00,56.0,38.7,30.00,NNW,338,0.0,0.0,52,0.00,,CLR,0.00,VWS V14.01,2013-01-20 22:54:00,
2013-01-20 17:55:00,55.8,38.5,30.00,NNW,338,0.0,0.0,52,0.00,,,0.00,VWS V14.01,2013-01-20 22:55:00,
2013-01-20 17:59:00,55.7,38.3,30.00,NNW,338,0.0,0.0,52,0.00,,CLR,0.00,VWS V14.01,2013-01-20 22:59:00,
2013-01-20 18:00:00,55.7,38.3,30.00,NNW,338,0.0,0.0,52,0.00,,,0.00,VWS V14.01,2013-01-20 23:00:00,
2013-01-20 18:04:00,55.1,37.8,30.00,NNW,338,0.0,0.0,52,0.00,,CLR,0.00,VWS V14.01,2013-01-20 23:04:00,
2013-01-20 18:05:00,54.9,37.7,30.00,NNW,338,0.0,0.0,52,0.00,,,0.00,VWS V14.01,2013-01-20 23:05:00,
2013-01-20 18:09:00,54.8,37.5,30.00,NNW,338,0.0,0.0,52,0.00,,CLR,0.00,VWS V14.01,2013-01-20 23:09:00,
2013-01-20 18:10:00,54.6,37.3,30.00,NNW,338,0.0,0.0,52,0.00,,,0.00,VWS V14.01,2013-01-20 23:10:00,
2013-01-20 18:14:00,54.6,37.3,30.00,NNW,338,0.0,0.0,52,0.00,,CLR,0.00,VWS V14.01,2013-01-20 23:14:00,
2013-01-20 18:15:00,54.6,37.3,30.00,NNW,338,0.0,0.0,52,0.00,,,0.00,VWS V14.01,2013-01-20 23:15:00,
2013-01-20 18:19:00,53.9,37.1,30.00,NNW,338,0.0,0.0,53,0.00,,CLR,0.00,VWS V14.01,2013-01-20 23:19:00,
2013-01-20 18:20:00,53.9,37.1,30.00,NNW,338,0.0,0.0,53,0.00,,,0.00,VWS V14.01,2013-01-20 23:20:00,
2013-01-20 18:24:00,53.5,36.8,30.00,NNW,338,0.0,0.0,53,0.00,,CLR,0.00,VWS V14.01,2013-01-20 23:24:00,
2013-01-20 18:25:00,53.5,36.8,30.00,NNW,338,0.0,0.0,53,0.00,,,0.00,VWS V14.01,2013-01-20 23:25:00,
2013-01-20 18:29:00,53.0,36.3,30.00,NNW,338,0.0,0.0,53,0.00,,CLR,0.00,VWS V14.01,2013-01-20 23:29:00,
2013-01-20 18:30:00,53.0,36.3,30.00,NNW,338,0.0,0.0,53,0.00,,,0.00,VWS V14.01,2013-01-20 23:30:00,
2013-01-20 18:34:00,52.6,36.0,30.00,NNW,338,0.0,0.0,53,0.00,,CLR,0.00,VWS V14.01,2013-01-20 23:34:00,
2013-01-20 18:35:00,52.6,36.0,30.00,NNW,338,0.0,0.0,53,0.00,,,0.00,VWS V14.01,2013-01-20 23:35:00,
2013-01-20 18:39:00,52.2,35.6,30.03,NNW,338,0.0,0.0,53,0.00,,CLR,0.00,VWS V14.01,2013-01-20 23:39:00,
2013-01-20 18:40:00,52.2,35.6,30.03,NNW,338,0.0,0.0,53,0.00,,,0.00,VWS V14.01,2013-01-20 23:40:00,
2013-01-20 18:44:00,52.1,35.5,30.03,NNW,338,0.0,0.0,53,0.00,,CLR,0.00,VWS V14.01,2013-01-20 23:44:00,
2013-01-20 18:45:00,52.1,35.5,30.03,NNW,338,0.0,0.0,53,0.00,,,0.00,VWS V14.01,2013-01-20 23:45:00,
2013-01-20 18:50:00,52.1,35.5,30.03,NNW,338,0.0,0.0,53,0.00,,CLR,0.00,VWS V14.01,2013-01-20 23:50:00,
2013-01-20 18:55:00,52.1,35.5,30.03,NNW,338,0.0,0.0,53,0.00,,CLR,0.00,VWS V14.01,2013-01-20 23:55:00,
2013-01-20 19:00:00,51.9,35.3,30.03,NNW,338,0.0,0.0,53,0.00,,CLR,0.00,VWS V14.01,2013-01-21 00:00:00,
2013-01-20 19:05:00,52.1,35.5,30.03,NNW,338,0.0,0.0,53,0.00,,CLR,0.00,VWS V14.01,2013-01-21 00:05:00,
2013-01-20 19:10:00,51.9,35.3,30.03,NNW,338,0.0,0.0,53,0.00,,CLR,0.00,VWS V14.01,2013-01-21 00:10:00,
2013-01-20 19:15:00,51.7,35.1,30.03,NNW,338,0.0,0.0,53,0.00,,CLR,0.00,VWS V14.01,2013-01-21 00:15:00,
2013-01-20 19:20:00,51.5,35.0,30.03,NNW,338,0.0,0.0,53,0.00,,CLR,0.00,VWS V14.01,2013-01-21 00:20:00,
2013-01-20 19:25:00,50.6,34.6,30.03,NNW,338,0.0,0.0,54,0.00,,CLR,0.00,VWS V14.01,2013-01-21 00:25:00,
2013-01-20 19:30:00,50.6,34.6,30.03,NNW,338,0.0,0.0,54,0.00,,CLR,0.00,VWS V14.01,2013-01-21 00:30:00,
2013-01-20 19:35:00,49.4,33.4,30.03,NNW,338,0.0,0.0,54,0.00,,CLR,0.00,VWS V14.01,2013-01-21 00:35:00,
2013-01-20 19:40:00,49.4,33.4,30.03,NNW,338,0.0,0.0,54,0.00,,CLR,0.00,VWS V14.01,2013-01-21 00:40:00,
2013-01-20 19:45:00,49.5,34.5,30.03,NNW,338,0.0,0.0,56,0.00,,CLR,0.00,VWS V14.01,2013-01-21 00:45:00,
2013-01-20 19:50:00,49.4,34.3,30.03,NNW,338,0.0,0.0,56,0.00,,CLR,0.00,VWS V14.01,2013-01-21 00:50:00,
2013-01-20 19:55:00,49.5,34.5,30.03,NNW,338,0.0,0.0,56,0.00,,CLR,0.00,VWS V14.01,2013-01-21 00:55:00,
2013-01-20 20:00:00,49.7,33.8,30.03,NNW,338,0.0,0.0,54,0.00,,CLR,0.00,VWS V14.01,2013-01-21 01:00:00,
2013-01-20 20:05:00,49.9,33.9,30.03,NNW,338,0.0,0.0,54,0.00,,CLR,0.00,VWS V14.01,2013-01-21 01:05:00,
2013-01-20 20:10:00,50.1,35.0,30.03,NNW,338,0.0,0.0,56,0.00,,CLR,0.00,VWS V14.01,2013-01-21 01:10:00,
2013-01-20 20:15:00,50.1,37.2,30.03,NNW,338,0.0,0.0,61,0.00,,CLR,0.00,VWS V14.01,2013-01-21 01:15:00,
2013-01-20 20:20:00,49.9,37.0,30.06,NNW,338,0.0,0.0,61,0.00,,CLR,0.00,VWS V14.01,2013-01-21 01:20:00,
2013-01-20 20:25:00,49.7,36.8,30.06,NNW,338,0.0,0.0,61,0.00,,CLR,0.00,VWS V14.01,2013-01-21 01:25:00,
2013-01-20 20:30:00,49.4,34.3,30.06,NNW,338,0.0,0.0,56,0.00,,CLR,0.00,VWS V14.01,2013-01-21 01:30:00,
2013-01-20 20:35:00,49.2,34.2,30.06,NNW,338,0.0,0.0,56,0.00,,CLR,0.00,VWS V14.01,2013-01-21 01:35:00,
2013-01-20 20:40:00,49.0,35.3,30.06,NNW,338,0.0,0.0,59,0.00,,CLR,0.00,VWS V14.01,2013-01-21 01:40:00,
2013-01-20 20:45:00,48.8,35.1,30.06,NNW,338,0.0,0.0,59,0.00,,,0.00,VWS V14.01,2013-01-21 01:45:00,
2013-01-20 20:46:00,48.6,35.0,30.06,NNW,338,0.0,0.0,59,0.00,,CLR,0.00,VWS V14.01,2013-01-21 01:46:00,
2013-01-20 20:50:00,48.5,34.8,30.06,NNW,338,0.0,0.0,59,0.00,,,0.00,VWS V14.01,2013-01-21 01:50:00,
2013-01-20 20:51:00,48.1,33.2,30.06,NNW,338,0.0,0.0,56,0.00,,CLR,0.00,VWS V14.01,2013-01-21 01:51:00,
2013-01-20 20:55:00,48.1,33.2,30.06,NNW,338,0.0,0.0,56,0.00,,,0.00,VWS V14.01,2013-01-21 01:55:00,
2013-01-20 20:56:00,48.1,33.2,30.06,NNW,338,0.0,0.0,56,0.00,,CLR,0.00,VWS V14.01,2013-01-21 01:56:00,
2013-01-20 21:00:00,47.9,33.0,30.06,NNW,338,0.0,0.0,56,0.00,,,0.00,VWS V14.01,2013-01-21 02:00:00,
2013-01-20 21:01:00,47.9,33.0,30.06,NNW,338,0.0,0.0,56,0.00,,CLR,0.00,VWS V14.01,2013-01-21 02:01:00,
2013-01-20 21:05:00,47.9,32.1,30.06,NNW,338,0.0,0.0,54,0.00,,,0.00,VWS V14.01,2013-01-21 02:05:00,
2013-01-20 21:06:00,47.9,32.1,30.06,NNW,338,0.0,0.0,54,0.00,,CLR,0.00,VWS V14.01,2013-01-21 02:06:00,
2013-01-20 21:10:00,47.9,32.1,30.06,NNW,338,0.0,0.0,54,0.00,,,0.00,VWS V14.01,2013-01-21 02:10:00,
2013-01-20 21:11:00,47.9,32.1,30.06,NNW,338,0.0,0.0,54,0.00,,CLR,0.00,VWS V14.01,2013-01-21 02:11:00,
2013-01-20 21:15:00,47.7,31.9,30.06,NNW,338,0.0,0.0,54,0.00,,,0.00,VWS V14.01,2013-01-21 02:15:00,
2013-01-20 21:16:00,47.7,31.9,30.06,NNW,338,0.0,0.0,54,0.00,,CLR,0.00,VWS V14.01,2013-01-21 02:16:00,
2013-01-20 21:20:00,47.7,31.9,30.06,NNW,338,0.0,0.0,54,0.00,,,0.00,VWS V14.01,2013-01-21 02:20:00,
2013-01-20 21:21:00,47.7,31.9,30.06,NNW,338,0.0,0.0,54,0.00,,CLR,0.00,VWS V14.01,2013-01-21 02:21:00,
2013-01-20 21:25:00,47.6,31.8,30.06,NNW,338,0.0,0.0,54,0.00,,,0.00,VWS V14.01,2013-01-21 02:25:00,
2013-01-20 21:26:00,47.4,31.6,30.06,NNW,338,0.0,0.0,54,0.00,,CLR,0.00,VWS V14.01,2013-01-21 02:26:00,
2013-01-20 21:30:00,47.2,31.4,30.06,NNW,338,0.0,0.0,54,0.00,,,0.00,VWS V14.01,2013-01-21 02:30:00,
2013-01-20 21:32:00,47.2,31.4,30.06,NNW,338,0.0,0.0,54,0.00,,CLR,0.00,VWS V14.01,2013-01-21 02:32:00,
2013-01-20 21:35:00,47.0,31.2,30.06,NNW,338,0.0,0.0,54,0.00,,,0.00,VWS V14.01,2013-01-21 02:35:00,
2013-01-20 21:37:00,47.0,31.2,30.06,NNW,338,0.0,0.0,54,0.00,,CLR,0.00,VWS V14.01,2013-01-21 02:37:00,
2013-01-20 21:40:00,46.8,31.1,30.06,NNW,338,0.0,0.0,54,0.00,,,0.00,VWS V14.01,2013-01-21 02:40:00,
2013-01-20 21:42:00,46.7,30.9,30.06,NNW,338,0.0,0.0,54,0.00,,CLR,0.00,VWS V14.01,2013-01-21 02:42:00,
2013-01-20 21:45:00,46.3,30.6,30.06,NNW,338,0.0,0.0,54,0.00,,,0.00,VWS V14.01,2013-01-21 02:45:00,
2013-01-20 21:47:00,46.3,30.6,30.06,NNW,338,0.0,0.0,54,0.00,,CLR,0.00,VWS V14.01,2013-01-21 02:47:00,
2013-01-20 21:50:00,45.9,31.6,30.06,NNW,338,0.0,0.0,57,0.00,,,0.00,VWS V14.01,2013-01-21 02:50:00,
2013-01-20 21:52:00,45.6,31.2,30.06,NNW,338,0.0,0.0,57,0.00,,CLR,0.00,VWS V14.01,2013-01-21 02:52:00,
2013-01-20 21:55:00,45.4,31.1,30.06,NNW,338,0.0,0.0,57,0.00,,,0.00,VWS V14.01,2013-01-21 02:55:00,
2013-01-20 21:57:00,45.4,31.1,30.06,NNW,338,0.0,0.0,57,0.00,,CLR,0.00,VWS V14.01,2013-01-21 02:57:00,
2013-01-20 22:00:00,45.0,30.7,30.06,NNW,338,0.0,0.0,57,0.00,,,0.00,VWS V14.01,2013-01-21 03:00:00,
2013-01-20 22:02:00,44.9,30.6,30.06,NNW,338,0.0,0.0,57,0.00,,CLR,0.00,VWS V14.01,2013-01-21 03:02:00,
2013-01-20 22:05:00,44.9,30.6,30.06,NNW,338,0.0,0.0,57,0.00,,,0.00,VWS V14.01,2013-01-21 03:05:00,
2013-01-20 22:07:00,44.7,30.4,30.06,NNW,338,0.0,0.0,57,0.00,,CLR,0.00,VWS V14.01,2013-01-21 03:07:00,
2013-01-20 22:10:00,44.9,30.6,30.06,NNW,338,0.0,0.0,57,0.00,,,0.00,VWS V14.01,2013-01-21 03:10:00,
2013-01-20 22:12:00,44.9,30.6,30.06,NNW,338,0.0,0.0,57,0.00,,CLR,0.00,VWS V14.01,2013-01-21 03:12:00,
2013-01-20 22:15:00,45.0,30.7,30.06,NNW,338,0.0,0.0,57,0.00,,,0.00,VWS V14.01,2013-01-21 03:15:00,
2013-01-20 22:17:00,45.0,30.7,30.06,NNW,338,0.0,0.0,57,0.00,,CLR,0.00,VWS V14.01,2013-01-21 03:17:00,
2013-01-20 22:20:00,45.0,30.7,30.06,NNW,338,0.0,0.0,57,0.00,,,0.00,VWS V14.01,2013-01-21 03:20:00,
2013-01-20 22:22:00,45.0,30.7,30.06,NNW,338,0.0,0.0,57,0.00,,CLR,0.00,VWS V14.01,2013-01-21 03:22:00,
2013-01-20 22:25:00,45.0,30.7,30.06,NNW,338,0.0,0.0,57,0.00,,,0.00,VWS V14.01,2013-01-21 03:25:00,
2013-01-20 22:27:00,45.0,30.7,30.06,NNW,338,0.0,0.0,57,0.00,,CLR,0.00,VWS V14.01,2013-01-21 03:27:00,
2013-01-20 22:30:00,44.9,30.6,30.06,NNW,338,0.0,0.0,57,0.00,,,0.00,VWS V14.01,2013-01-21 03:30:00,
2013-01-20 22:32:00,44.7,30.4,30.06,NNW,338,0.0,0.0,57,0.00,,CLR,0.00,VWS V14.01,2013-01-21 03:32:00,
2013-01-20 22:35:00,44.7,30.4,30.06,NNW,338,0.0,0.0,57,0.00,,,0.00,VWS V14.01,2013-01-21 03:35:00,
2013-01-20 22:37:00,44.7,30.4,30.06,NNW,338,0.0,0.0,57,0.00,,CLR,0.00,VWS V14.01,2013-01-21 03:37:00,
2013-01-20 22:40:00,44.7,30.4,30.06,NNW,338,0.0,0.0,57,0.00,,,0.00,VWS V14.01,2013-01-21 03:40:00,
2013-01-20 22:43:00,44.1,29.9,30.06,NNW,338,0.0,0.0,57,0.00,,CLR,0.00,VWS V14.01,2013-01-21 03:43:00,
2013-01-20 22:45:00,44.1,29.9,30.06,NNW,338,0.0,0.0,57,0.00,,,0.00,VWS V14.01,2013-01-21 03:45:00,
2013-01-20 22:48:00,44.1,29.9,30.06,NNW,338,0.0,0.0,57,0.00,,CLR,0.00,VWS V14.01,2013-01-21 03:48:00,
2013-01-20 22:50:00,44.0,29.7,30.06,NNW,338,0.0,0.0,57,0.00,,,0.00,VWS V14.01,2013-01-21 03:50:00,
2013-01-20 22:53:00,43.8,29.6,30.06,NNW,338,0.0,0.0,57,0.00,,CLR,0.00,VWS V14.01,2013-01-21 03:53:00,
2013-01-20 22:55:00,43.8,29.6,30.06,NNW,338,0.0,0.0,57,0.00,,,0.00,VWS V14.01,2013-01-21 03:55:00,
2013-01-20 22:58:00,43.8,29.6,30.06,NNW,338,0.0,0.0,57,0.00,,CLR,0.00,VWS V14.01,2013-01-21 03:58:00,
2013-01-20 23:00:00,43.8,29.6,30.06,NNW,338,0.0,0.0,57,0.00,,,0.00,VWS V14.01,2013-01-21 04:00:00,
2013-01-20 23:03:00,44.0,29.7,30.06,NNW,338,0.0,0.0,57,0.00,,CLR,0.00,VWS V14.01,2013-01-21 04:03:00,
2013-01-20 23:05:00,43.8,29.6,30.06,NNW,338,0.0,0.0,57,0.00,,,0.00,VWS V14.01,2013-01-21 04:05:00,
2013-01-20 23:08:00,43.8,29.6,30.06,NNW,338,0.0,0.0,57,0.00,,CLR,0.00,VWS V14.01,2013-01-21 04:08:00,
2013-01-20 23:10:00,43.8,29.6,30.06,NNW,338,0.0,0.0,57,0.00,,,0.00,VWS V14.01,2013-01-21 04:10:00,
2013-01-20 23:13:00,43.8,29.6,30.06,NNW,338,0.0,0.0,57,0.00,,CLR,0.00,VWS V14.01,2013-01-21 04:13:00,
2013-01-20 23:15:00,43.8,29.6,30.06,NNW,338,0.0,0.0,57,0.00,,,0.00,VWS V14.01,2013-01-21 04:15:00,
2013-01-20 23:18:00,43.2,29.5,30.06,NNW,338,0.0,0.0,58,0.00,,CLR,0.00,VWS V14.01,2013-01-21 04:18:00,
2013-01-20 23:20:00,43.2,29.5,30.06,NNW,338,0.0,0.0,58,0.00,,,0.00,VWS V14.01,2013-01-21 04:20:00,
2013-01-20 23:23:00,43.2,29.5,30.06,NNW,338,0.0,0.0,58,0.00,,CLR,0.00,VWS V14.01,2013-01-21 04:23:00,
2013-01-20 23:25:00,42.9,29.1,30.06,NNW,338,0.0,0.0,58,0.00,,,0.00,VWS V14.01,2013-01-21 04:25:00,
2013-01-20 23:28:00,42.7,29.0,30.06,NNW,338,0.0,0.0,58,0.00,,CLR,0.00,VWS V14.01,2013-01-21 04:28:00,
2013-01-20 23:30:00,42.5,28.8,30.06,NNW,338,0.0,0.0,58,0.00,,,0.00,VWS V14.01,2013-01-21 04:30:00,
2013-01-20 23:33:00,42.5,29.6,30.06,NNW,338,0.0,0.0,60,0.00,,CLR,0.00,VWS V14.01,2013-01-21 04:33:00,
2013-01-20 23:35:00,42.3,29.5,30.06,NNW,338,0.0,0.0,60,0.00,,,0.00,VWS V14.01,2013-01-21 04:35:00,
2013-01-20 23:38:00,42.2,29.3,30.06,NNW,338,0.0,0.0,60,0.00,,CLR,0.00,VWS V14.01,2013-01-21 04:38:00,
2013-01-20 23:40:00,42.2,29.3,30.06,NNW,338,0.0,0.0,60,0.00,,,0.00,VWS V14.01,2013-01-21 04:40:00,
2013-01-20 23:43:00,42.0,29.1,30.06,NNW,338,0.0,0.0,60,0.00,,CLR,0.00,VWS V14.01,2013-01-21 04:43:00,
2013-01-20 23:45:00,42.0,29.1,30.06,NNW,338,0.0,0.0,60,0.00,,,0.00,VWS V14.01,2013-01-21 04:45:00,
2013-01-20 23:48:00,42.0,29.1,30.06,NNW,338,0.0,0.0,60,0.00,,CLR,0.00,VWS V14.01,2013-01-21 04:48:00,
2013-01-20 23:50:00,41.8,30.1,30.06,NNW,338,0.0,0.0,63,0.00,,,0.00,VWS V14.01,2013-01-21 04:50:00,
2013-01-20 23:53:00,41.6,30.0,30.06,NNW,338,0.0,0.0,63,0.00,,CLR,0.00,VWS V14.01,2013-01-21 04:53:00,
2013-01-20 23:55:00,41.6,30.0,30.06,NNW,338,0.0,0.0,63,0.00,,,0.00,VWS V14.01,2013-01-21 04:55:00,
2013-01-20 23:59:00,41.6,30.0,30.06,NNW,338,0.0,0.0,63,0.00,,CLR,0.00,VWS V14.01,2013-01-21 04:59:00,